K9JWM Weather Reports


Display with metric or nautical units.
time (UTC)temp
F
wind
direction
speed
MPH
gust
MPH
rain 1hr
in
rain 24hr
in
rain mn
in
humidity
%
barometer
mb
20260508192005 59 257 10.0 16.0 0.00 0.00 0.00 32 1004.0
20260508191710 60 227 8.0 13.0 0.00 0.00 0.00 30 1004.0
20260508191005 60 354 5.0 15.0 0.00 0.00 0.00 32 1004.0
20260508190211 59 260 12.0 14.0 0.00 0.00 0.00 31 1004.4
20260508190005 59 265 10.0 12.0 0.00 0.00 0.00 31 1004.4
20260508185005 57 266 11.0 14.0 0.00 0.00 0.00 31 1004.4
20260508184711 57 256 3.0 7.0 0.00 0.00 0.00 30 1004.5
20260508184005 58 244 10.0 20.0 0.00 0.00 0.00 34 1004.6
20260508183210 57 242 14.0 16.0 0.00 0.00 0.00 32 1004.6
20260508183005 57 233 15.0 22.0 0.00 0.00 0.00 34 1004.6
20260508182005 59 248 7.0 14.0 0.00 0.00 0.00 31 1005.0
20260508181710 58 278 5.0 8.0 0.00 0.00 0.00 31 1005.0
20260508181005 58 267 4.0 15.0 0.00 0.00 0.00 31 1005.0
20260508180211 57 236 6.0 7.0 0.00 0.00 0.00 32 1005.1
20260508175005 57 253 8.0 16.0 0.00 0.00 0.00 32 1005.2
20260508174709 57 249 8.0 15.0 0.00 0.00 0.00 32 1005.1
20260508173211 57 280 12.0 18.0 0.00 0.00 0.00 32 1005.4
20260508173005 57 305 9.0 21.0 0.00 0.00 0.00 31 1005.5
20260508171709 56 257 7.0 12.0 0.00 0.00 0.00 36 1005.7
20260508171005 57 255 10.0 18.0 0.00 0.00 0.00 33 1005.8
20260508170210 56 265 1.0 3.0 0.00 0.00 0.00 33 1005.8
20260508170005 56 276 3.0 15.0 0.00 0.00 0.00 32 1006.0
20260508164710 56 240 8.0 9.0 0.00 0.00 0.00 34 1006.2
20260508164004 56 265 2.0 10.0 0.00 0.00 0.00 35 1006.2
20260508163211 55 256 3.0 7.0 0.00 0.00 0.00 34 1006.3
20260508163005 55 235 12.0 16.0 0.00 0.00 0.00 35 1006.4
20260508162005 54 224 7.0 20.0 0.00 0.00 0.00 38 1006.6
20260508161710 54 245 10.0 13.0 0.00 0.00 0.00 41 1006.7
20260508161005 55 250 13.0 18.0 0.00 0.00 0.00 34 1006.8
20260508160211 54 244 12.0 13.0 0.00 0.00 0.00 38 1006.9
20260508160004 54 243 12.0 17.0 0.00 0.00 0.00 36 1006.9
20260508155005 54 257 12.0 16.0 0.00 0.00 0.00 34 1007.0
20260508154711 55 255 8.0 14.0 0.00 0.00 0.00 36 1006.9
20260508154004 54 303 6.0 14.0 0.00 0.00 0.00 36 1007.1
20260508153211 53 241 2.0 3.0 0.00 0.00 0.00 41 1007.3
20260508153005 53 226 8.0 14.0 0.00 0.00 0.00 43 1007.2
20260508151711 52 256 6.0 8.0 0.00 0.00 0.00 44 1007.4
20260508151005 52 312 1.0 16.0 0.00 0.00 0.00 41 1007.4
20260508150210 52 245 12.0 16.0 0.00 0.00 0.00 42 1007.6
20260508150006 52 259 9.0 12.0 0.00 0.00 0.00 40 1007.6
20260508144711 51 266 5.0 8.0 0.00 0.00 0.00 45 1007.8
20260508144005 50 242 6.0 8.0 0.00 0.00 0.00 45 1007.8
20260508143211 49 227 6.0 7.0 0.00 0.00 0.00 50 1007.9
20260508143005 49 222 6.0 8.0 0.00 0.00 0.00 49 1007.7
20260508141710 48 200 3.0 3.0 0.00 0.00 0.00 50 1008.0
20260508141005 48 234 6.0 10.0 0.00 0.00 0.00 53 1008.1
20260508140210 46 225 5.0 5.0 0.00 0.00 0.00 55 1008.1
20260508140005 46 243 5.0 10.0 0.00 0.00 0.00 59 1008.2
20260508135005 45 243 6.0 9.0 0.00 0.00 0.00 64 1008.2
20260508134710 44 231 7.0 9.0 0.00 0.00 0.00 66 1008.3
20260508134005 43 231 5.0 8.0 0.00 0.00 0.00 68 1008.3
20260508133210 42 230 5.0 6.0 0.00 0.00 0.00 71 1008.4
20260508132005 40 227 7.0 9.0 0.00 0.00 0.00 74 1008.4
20260508131710 40 232 7.0 7.0 0.00 0.00 0.00 74 1008.5
20260508131004 39 234 5.0 8.0 0.00 0.00 0.00 80 1008.4
20260508130210 38 232 3.0 5.0 0.00 0.00 0.00 82 1008.6
20260508130005 37 218 3.0 6.0 0.00 0.00 0.00 83 1008.6
20260508125005 36 233 5.0 6.0 0.00 0.00 0.00 87 1008.6
20260508124710 36 236 5.0 6.0 0.00 0.00 0.00 91 1008.6
20260508124005 34 253 4.0 5.0 0.00 0.00 0.00 96 1008.5
20260508123211 32 287 2.0 3.0 0.00 0.00 0.00 96 1008.6
20260508123005 32 287 2.0 3.0 0.00 0.00 0.00 96 1008.5
20260508122005 30 292 0.0 0.0 0.00 0.00 0.00 95 1008.4
20260508121709 30 292 0.0 0.0 0.00 0.00 0.00 95 1008.5
20260508120211 29 292 0.0 0.0 0.00 0.00 0.00 94 1008.2
20260508120005 29 292 0.0 0.0 0.00 0.00 0.00 94 1008.3
20260508115005 29 292 0.0 0.0 0.00 0.00 0.00 94 1008.3
20260508114711 29 292 0.0 0.0 0.00 0.00 0.00 94 1008.2
20260508114004 29 292 0.0 0.0 0.00 0.00 0.00 93 1008.2
20260508113209 28 292 0.0 0.0 0.00 0.00 0.00 93 1008.4
20260508113005 28 292 0.0 0.0 0.00 0.00 0.00 93 1008.3
20260508112005 28 292 0.0 0.0 0.00 0.00 0.00 93 1008.3
20260508111709 28 292 0.0 0.0 0.00 0.00 0.00 93 1008.3
20260508110211 28 292 0.0 0.0 0.00 0.00 0.00 92 1008.4
20260508110005 28 292 0.0 0.0 0.00 0.00 0.00 92 1008.4
20260508105005 28 292 0.0 1.0 0.00 0.00 0.00 92 1008.2
20260508104710 28 292 0.0 0.0 0.00 0.00 0.00 92 1008.2
20260508104004 28 292 0.0 0.0 0.00 0.00 0.00 92 1008.3
20260508103211 28 292 0.0 0.0 0.00 0.00 0.00 91 1008.2
20260508103004 28 292 0.0 0.0 0.00 0.00 0.00 91 1008.2
20260508102005 28 292 0.0 2.0 0.00 0.00 0.00 91 1008.2
20260508101711 28 292 0.0 0.0 0.00 0.00 0.00 91 1008.1
20260508101004 28 292 0.0 0.0 0.00 0.00 0.00 91 1008.2
20260508100211 28 292 0.0 0.0 0.00 0.00 0.00 91 1008.1
20260508100005 28 292 0.0 1.0 0.00 0.00 0.00 90 1008.2
20260508095004 28 292 0.0 0.0 0.00 0.00 0.00 90 1008.2
20260508094710 28 292 0.0 0.0 0.00 0.00 0.00 90 1008.2
20260508094005 28 292 0.0 0.0 0.00 0.00 0.00 90 1008.2
20260508093209 28 292 0.0 0.0 0.00 0.00 0.00 90 1008.3
20260508093004 28 292 0.0 0.0 0.00 0.00 0.00 90 1008.3
20260508092005 28 292 0.0 0.0 0.00 0.00 0.00 90 1008.3
20260508091710 28 292 0.0 0.0 0.00 0.00 0.00 90 1008.3
20260508091004 28 292 0.0 0.0 0.00 0.00 0.00 90 1008.3
20260508090210 28 292 0.0 0.0 0.00 0.00 0.00 90 1008.3
20260508090005 28 292 0.0 1.0 0.00 0.00 0.00 89 1008.4
20260508085004 28 292 0.0 1.0 0.00 0.00 0.00 88 1008.4
20260508084711 28 292 0.0 0.0 0.00 0.00 0.00 88 1008.4
20260508084005 28 292 0.0 0.0 0.00 0.00 0.00 88 1008.4
20260508083210 28 292 0.0 0.0 0.00 0.00 0.00 88 1008.5
20260508083005 28 292 0.0 0.0 0.00 0.00 0.00 88 1008.4
20260508082005 28 292 0.0 0.0 0.00 0.00 0.00 87 1008.5
20260508081710 29 292 0.0 0.0 0.00 0.00 0.00 87 1008.5
20260508081005 29 292 0.0 0.0 0.00 0.00 0.00 86 1008.5
20260508080211 29 292 0.0 0.0 0.00 0.00 0.00 86 1008.5
20260508080005 29 292 0.0 0.0 0.00 0.00 0.00 86 1008.5
20260508075004 29 292 0.0 0.0 0.00 0.00 0.00 85 1008.6
20260508074710 29 292 0.0 0.0 0.00 0.00 0.00 85 1008.6
20260508074005 29 292 0.0 0.0 0.00 0.00 0.00 84 1008.7
20260508073209 29 292 0.0 0.0 0.00 0.00 0.00 84 1008.7
20260508072005 29 292 0.0 0.0 0.00 0.00 0.00 84 1008.8
20260508071711 29 292 0.0 0.0 0.00 0.00 0.00 84 1008.8
20260508070211 30 292 0.0 0.0 0.00 0.00 0.00 84 1008.9
20260508070005 30 292 0.0 0.0 0.00 0.00 0.00 84 1008.9
20260508065004 30 292 0.0 0.0 0.00 0.00 0.00 84 1009.0
20260508064710 30 292 0.0 0.0 0.00 0.00 0.00 83 1009.0
20260508064005 30 292 0.0 0.0 0.00 0.00 0.00 84 1009.0
20260508063211 30 292 0.0 0.0 0.00 0.00 0.00 83 1009.1
20260508063004 30 292 0.0 0.0 0.00 0.00 0.00 83 1009.0
20260508062005 30 292 0.0 0.0 0.00 0.00 0.00 82 1009.1
20260508061710 30 292 0.0 0.0 0.00 0.00 0.00 82 1009.0
20260508061005 31 292 0.0 0.0 0.00 0.00 0.00 82 1009.1
20260508060210 31 292 0.0 0.0 0.00 0.00 0.00 82 1009.2
20260508060005 31 292 0.0 0.0 0.00 0.00 0.00 82 1009.2
20260508054711 31 292 0.0 0.0 0.00 0.00 0.00 81 1009.2
20260508054004 32 292 0.0 0.0 0.00 0.00 0.00 81 1009.3
20260508053210 32 292 0.0 0.0 0.00 0.00 0.00 80 1009.4
20260508053004 32 292 0.0 0.0 0.00 0.00 0.00 80 1009.4
20260508051710 32 292 0.0 0.0 0.00 0.00 0.00 79 1009.4
20260508051004 33 292 0.0 0.0 0.00 0.00 0.00 79 1009.4
20260508050211 33 292 0.0 0.0 0.00 0.00 0.00 78 1009.4
20260508050004 33 292 0.0 0.0 0.00 0.00 0.00 78 1009.3
20260508045005 34 292 0.0 0.0 0.00 0.00 0.00 76 1009.3
20260508044710 34 292 0.0 0.0 0.00 0.00 0.00 76 1009.4
20260508044004 34 292 0.0 0.0 0.00 0.00 0.00 76 1009.3
20260508043210 35 292 0.0 0.0 0.00 0.00 0.00 74 1009.3
20260508041709 35 292 0.0 0.0 0.00 0.00 0.00 74 1009.3
20260508041004 36 292 0.0 0.0 0.00 0.00 0.00 74 1009.4
20260508040210 36 292 0.0 0.0 0.00 0.00 0.00 73 1009.5
20260508035005 36 292 1.0 2.0 0.00 0.00 0.00 72 1009.4
20260508034710 36 293 0.0 0.0 0.00 0.00 0.00 72 1009.4
20260508034005 37 293 0.0 0.0 0.00 0.00 0.00 72 1009.5
20260508033209 37 293 0.0 0.0 0.00 0.00 0.00 71 1009.5
20260508032005 37 293 0.0 0.0 0.00 0.00 0.00 71 1009.5
20260508031709 37 293 0.0 0.0 0.00 0.00 0.00 70 1009.6
20260508031005 38 293 0.0 0.0 0.00 0.00 0.00 69 1009.6
20260508030209 38 293 0.0 0.0 0.00 0.00 0.00 67 1009.6
20260508030005 38 293 0.0 0.0 0.00 0.00 0.00 67 1009.7
20260508025005 39 293 0.0 0.0 0.00 0.00 0.00 65 1009.7
20260508024709 39 293 0.0 0.0 0.00 0.00 0.00 64 1009.7
20260508024004 40 293 0.0 0.0 0.00 0.00 0.00 62 1009.6
20260508023210 40 293 0.0 0.0 0.00 0.00 0.00 61 1009.6
20260508023005 40 293 0.0 0.0 0.00 0.00 0.00 61 1009.6
20260508022005 41 293 0.0 0.0 0.00 0.00 0.00 60 1009.6
20260508021710 41 293 0.0 0.0 0.00 0.00 0.00 60 1009.7
20260508021004 42 293 0.0 0.0 0.00 0.00 0.00 58 1009.6
20260508020210 43 293 0.0 0.0 0.00 0.00 0.00 58 1009.4
20260508020005 43 293 0.0 0.0 0.00 0.00 0.00 57 1009.4
20260508015004 44 293 0.0 1.0 0.00 0.00 0.00 55 1009.2
20260508014710 44 293 0.0 0.0 0.00 0.00 0.00 54 1009.2
20260508014004 45 293 1.0 2.0 0.00 0.00 0.00 53 1009.1
20260508013209 46 292 0.0 0.0 0.00 0.00 0.00 53 1009.2
20260508013005 46 292 0.0 1.0 0.00 0.00 0.00 53 1009.2
20260508012005 46 292 0.0 3.0 0.00 0.00 0.00 53 1009.2
20260508011710 47 292 0.0 0.0 0.00 0.00 0.00 53 1009.2
20260508011005 47 294 1.0 5.0 0.00 0.00 0.00 51 1009.3
20260508010209 47 278 1.0 3.0 0.00 0.00 0.00 52 1009.2
20260508010004 47 277 0.0 3.0 0.00 0.00 0.00 53 1009.2
20260508005004 47 248 3.0 8.0 0.00 0.00 0.00 52 1009.2
20260508004710 47 277 3.0 3.0 0.00 0.00 0.00 50 1009.2
20260508004005 48 270 3.0 7.0 0.00 0.00 0.00 53 1009.1
20260508003210 48 266 3.0 5.0 0.00 0.00 0.00 52 1009.0
20260508003005 48 269 6.0 9.0 0.00 0.00 0.00 49 1009.1
20260508002004 47 256 5.0 10.0 0.00 0.00 0.00 52 1009.1
20260508001709 47 295 2.0 6.0 0.00 0.00 0.00 54 1009.2
20260508001005 47 266 6.0 9.0 0.00 0.00 0.00 52 1009.1
20260508000212 47 287 5.0 7.0 0.00 0.00 0.00 53 1009.2
20260508000005 47 279 2.0 10.0 0.00 0.00 0.00 52 1009.2
20260507235005 47 314 3.0 10.0 0.00 0.00 0.00 50 1009.2
20260507234710 48 292 6.0 10.0 0.00 0.00 0.00 52 1009.2
20260507234004 48 248 3.0 12.0 0.00 0.00 0.00 50 1009.3
20260507233210 47 308 6.0 9.0 0.00 0.00 0.00 50 1009.6
20260507233004 48 277 5.0 17.0 0.00 0.00 0.00 50 1009.5
20260507232005 48 258 7.0 20.0 0.00 0.00 0.00 45 1009.3
20260507231711 49 288 9.0 14.0 0.00 0.00 0.00 43 1009.1
20260507231004 49 246 9.0 15.0 0.00 0.00 0.00 48 1009.0
20260507230210 49 254 7.0 8.0 0.00 0.00 0.00 43 1009.0
20260507230005 49 253 2.0 12.0 0.00 0.00 0.00 41 1009.0
20260507225004 49 266 7.0 17.0 0.00 0.00 0.00 42 1009.0
20260507224710 49 281 12.0 17.0 0.00 0.00 0.00 43 1009.2
20260507224005 49 262 2.0 10.0 0.00 0.00 0.00 44 1009.2
20260507223209 48 277 8.0 9.0 0.00 0.00 0.00 43 1009.3
20260507223004 48 268 7.0 17.0 0.00 0.00 0.00 44 1009.4
20260507222004 48 249 9.0 16.0 0.00 0.00 0.00 44 1009.1
20260507221709 48 293 9.0 13.0 0.00 0.00 0.00 41 1009.2
20260507221004 48 259 9.0 14.0 0.00 0.00 0.00 42 1009.1
20260507220210 49 256 5.0 9.0 0.00 0.00 0.00 40 1009.2
20260507220004 48 287 5.0 13.0 0.00 0.00 0.00 43 1009.3
20260507215004 48 274 5.0 12.0 0.00 0.00 0.00 43 1009.3
20260507214709 48 258 6.0 7.0 0.00 0.00 0.00 44 1009.2
20260507214005 48 262 9.0 18.0 0.00 0.00 0.00 42 1009.2
20260507213210 48 290 3.0 5.0 0.00 0.00 0.00 39 1009.3
20260507213004 48 265 7.0 21.0 0.00 0.00 0.00 41 1009.2
20260507212004 48 283 7.0 17.0 0.00 0.00 0.00 39 1009.3
20260507211710 48 263 9.0 12.0 0.00 0.00 0.00 39 1009.2
20260507210209 48 270 9.0 12.0 0.00 0.00 0.00 39 1009.3
20260507210004 49 264 10.0 20.0 0.00 0.00 0.00 40 1009.2
20260507205005 48 262 9.0 12.0 0.00 0.00 0.00 38 1009.3
20260507204710 48 263 7.0 7.0 0.00 0.00 0.00 38 1009.3
20260507204004 48 241 7.0 16.0 0.00 0.00 0.00 39 1009.4
20260507203209 48 259 3.0 5.0 0.00 0.00 0.00 37 1009.5
20260507203004 48 290 6.0 16.0 0.00 0.00 0.00 36 1009.5
20260507202005 48 265 7.0 12.0 0.00 0.00 0.00 42 1009.6
20260507201710 48 262 5.0 10.0 0.00 0.00 0.00 41 1009.8
20260507201004 48 284 4.0 12.0 0.00 0.00 0.00 42 1010.0
20260507200209 48 262 6.0 6.0 0.00 0.00 0.00 38 1010.0
20260507200004 48 243 6.0 13.0 0.00 0.00 0.00 39 1010.0
20260507195004 47 283 7.0 16.0 0.00 0.00 0.00 38 1010.1
20260507194710 47 264 10.0 14.0 0.00 0.00 0.00 39 1010.0
20260507193210 48 264 8.0 9.0 0.00 0.00 0.00 39 1010.1
20260507193004 48 256 10.0 17.0 0.00 0.00 0.00 40 1010.1